Regional Weather Roundup
Issued by NWS

Home | Current Version | Previous Version | Text Only | Print | Product List | Glossary On
Versions: 1 2 3 4 5 6 7 8 9 10 11 12 13 14 15 16 17 18 19 20 21 22 23 24 25 26 27 28 29 30 31 32 33 34 35 36 37 38 39 40 41 42 43 44 45 46 47 48 49 50
000
ASUS43 KFSD 010502
RWRSD

WEATHER ROUNDUP FOR SOUTH DAKOTA
NATIONAL WEATHER SERVICE SIOUX FALLS SD
1200 AM CDT SAT AUG 01 2015

NOTE: "FAIR" INDICATES FEW OR NO CLOUDS BELOW 12,000 FEET WITH NO
SIGNIFICANT WEATHER AND/OR OBSTRUCTIONS TO VISIBILITY.


SDZ001>005-009-010-012>017-010600-
NORTHWEST AND NORTH CENTRAL SOUTH DAKOTA

CITY           SKY/WX    TMP DP  RH WIND       PRES   REMARKS
BUFFALO          N/A     70  47  43 S10       30.01S
FAITH            N/A     71  43  36 SE13      30.07F
MOBRIDGE       CLEAR     68  54  60 SE3       30.03R
$$

SDZ012>016-024>037-041>051-057-063-072>074-010600-
SOUTHWEST AND SOUTH CENTRAL SOUTH DAKOTA

CITY           SKY/WX    TMP DP  RH WIND       PRES   REMARKS
RAPID CTY ARPT CLEAR     62  55  77 W3        30.13S
PIERRE         CLEAR     72  54  53 S3        30.05S
CUSTER         CLEAR     63  47  55 E6        30.29R
ELLSWORTH AFB  CLEAR     71  53  52 SW1       30.12S
PHILIP         PTCLDY    75  60  59 SE7       30.07S
PINE RIDGE     CLEAR     69  53  56 E9        30.13S
WINNER         FAIR      72  61  68 SE8       30.11R
$$

SDZ004>011-016>023-039-040-010600-
NORTHEAST SOUTH DAKOTA

CITY           SKY/WX    TMP DP  RH WIND       PRES   REMARKS
ABERDEEN       CLEAR     61  58  90 SW3       30.03R
WATERTOWN      CLEAR     66  59  78 SW8       30.04S
BROOKINGS      CLEAR     66  57  72 SW8       30.07F
SISSETON         N/A     66  61  84 NW3       29.99S
$$

SDZ017-020-022-023-036>040-048>070-010600-
SOUTHEAST SOUTH DAKOTA

CITY           SKY/WX    TMP DP  RH WIND       PRES   REMARKS
SIOUX FALLS    CLEAR     72  62  71 SW6       30.07S
HURON          CLEAR     72  58  61 SW10      30.04S
CHAMBERLAIN    CLEAR     67  61  83 S6        30.09S
MITCHELL       CLEAR     72  64  76 SW8       30.07S
YANKTON        CLEAR     70  66  88 CALM      30.08S
$$

ABBREVIATIONS USED IN REMARKS
   TC - TEMPERATURE IN CELSIUS
  WCI - WIND CHILL INDEX
   HX - HEAT INDEX
  VSB - VISIBILITY




USA.gov is the U.S. government's official web portal to all federal, state and local government web resources and services.